Bangor, ME

2:33 PM EST on December 05, 2016 (GMT -0500)
Bangor International

Weather History for KBGR - April, 2015

Change the Weather History Date:

Tuesday, April 21, 2015

  Actual Average Record
Temperature  
Mean Temperature 45 °F 45 °F  
Max Temperature 50 °F 55 °F 79 °F (1957)
Min Temperature 40 °F 34 °F 22 °F (1944)
Degree Days  
Heating Degree Days 20 20  
Month to date heating degree days 545 511  
Since 1 July heating degree days 7687 7234  
Cooling Degree Days 0 0  
Month to date cooling degree days 0 0  
Year to date cooling degree days 0 0  
Moisture  
Dew Point 44 °F    
Average Humidity 93    
Maximum Humidity 100    
Minimum Humidity 86    
Precipitation  
Precipitation 0.65 in 0.11 in 1.65 in (1950)
Month to date precipitation 1.80 2.55  
Year to date precipitation 8.14 11.34  
Snow  
Snow 0.00 in 0.00 in T in (2005)
Month to date snowfall 6.3 3.4  
Since 1 July snowfall 139.0 65.8  
Snow Depth -    
Sea Level Pressure  
Sea Level Pressure 29.71 in    
Wind  
Wind Speed 15 mph (SE)    
Max Wind Speed 28 mph    
Max Gust Speed 39 mph    
Visibility 4 miles    
Events Rain , Thunderstorm    
T = Trace of Precipitation, MM = Missing Value Source: NWS Daily Summary

Daily Weather History Graph

Daily Weather History Graph

Search for Another Location

Airport or City:

Trip Planner

Search our weather history database for the weather conditions in past years. The results will help you decide how hot, cold, wet, or windy it might be!

Date:

Astronomy

Apr. 21, 2015 Rise Set
Actual Time 5:41 AM EDT 7:27 PM EDT
Civil Twilight 5:10 AM EDT 7:58 PM EDT
Nautical Twilight 4:32 AM EDT 8:36 PM EDT
Astronomical Twilight 3:51 AM EDT 9:18 PM EDT
Moon 7:51 AM EDT (4/21) 10:50 PM EDT (4/21)
Length of Visible Light 14h 48m
Length of Day
13h 46m
Waxing Crescent, 11% of the Moon is Illuminated
Apr 21
Waxing Crescent
Apr 25
First Quarter
May 3
Full
May 11
Last Quarter
May 18
New

Hourly Weather History & Observations

Time (EDT) Temp. Windchill Dew Point Humidity Pressure Visibility Wind Dir Wind Speed Gust Speed Precip Events Conditions
12:53 AM 41.0 °F 32.8 °F 37.9 °F 89% 30.02 in 4.0 mi ESE 16.1 mph 28.8 mph 0.00 in Rain Light Rain
1:53 AM 41.0 °F 32.2 °F 39.0 °F 93% 29.98 in 4.0 mi SE 18.4 mph 28.8 mph 0.01 in Rain Light Rain
2:12 AM 42.1 °F 32.8 °F 39.0 °F 89% 29.96 in 2.5 mi ESE 21.9 mph 28.8 mph 0.01 in Rain Light Rain
2:53 AM 42.1 °F 33.1 °F 39.9 °F 92% 29.95 in 2.5 mi ESE 20.7 mph 33.4 mph 0.05 in Rain Light Rain
3:07 AM 42.1 °F 33.6 °F 39.9 °F 92% 29.93 in 3.0 mi ESE 18.4 mph 25.3 mph 0.00 in Rain Light Rain
3:29 AM 42.1 °F 32.3 °F 39.9 °F 92% 29.90 in 2.0 mi ESE 24.2 mph 34.5 mph 0.02 in Rain Light Rain
3:51 AM 42.8 °F 34.8 °F 39.2 °F 87% 29.89 in 3.0 mi ESE 17.3 mph 33.4 mph 0.03 in Rain Light Rain
3:53 AM 43.0 °F 34.0 °F 39.9 °F 89% 29.89 in 3.0 mi ESE 21.9 mph 32.2 mph 0.03 in Rain Light Rain
4:10 AM 43.0 °F 34.0 °F 39.9 °F 89% 29.88 in 2.0 mi ESE 21.9 mph 28.8 mph 0.01 in Rain Light Rain
4:39 AM 43.0 °F 34.2 °F 39.9 °F 89% 29.85 in 3.0 mi SE 20.7 mph 35.7 mph 0.03 in Rain Light Rain
4:53 AM 43.0 °F 34.8 °F 39.9 °F 89% 29.85 in 3.0 mi ESE 18.4 mph 27.6 mph 0.03 in Rain Light Rain
5:53 AM 43.0 °F 34.2 °F 39.9 °F 89% 29.83 in 6.0 mi SE 20.7 mph 34.5 mph 0.02 in   Overcast
6:48 AM 44.6 °F 36.4 °F 41.0 °F 87% 29.80 in 3.0 mi ESE 20.7 mph 29.9 mph 0.02 in Rain Light Rain
6:53 AM 44.1 °F 35.2 °F 41.0 °F 89% 29.80 in 3.0 mi SE 23.0 mph 35.7 mph 0.03 in Rain Light Rain
7:06 AM 44.1 °F 35.4 °F 41.0 °F 89% 29.79 in 2.0 mi SE 21.9 mph 32.2 mph 0.01 in Rain Light Rain
7:15 AM 44.1 °F 35.9 °F 41.0 °F 89% 29.79 in 2.0 mi SE 19.6 mph 27.6 mph 0.02 in Rain Light Rain
7:28 AM 44.1 °F 36.2 °F 42.1 °F 93% 29.78 in 1.5 mi SE 18.4 mph 28.8 mph 0.03 in Rain Light Rain
7:53 AM 44.1 °F 35.9 °F 42.1 °F 93% 29.76 in 1.2 mi SE 19.6 mph 32.2 mph 0.07 in Rain Light Rain
8:47 AM 44.6 °F 36.6 °F 42.8 °F 93% 29.72 in 3.0 mi SE 19.6 mph 29.9 mph 0.05 in Rain Light Rain
8:53 AM 45.0 °F 37.4 °F 42.1 °F 90% 29.72 in 5.0 mi ESE 18.4 mph 28.8 mph 0.06 in Rain Light Rain
9:53 AM 46.0 °F 38.0 °F 43.0 °F 89% 29.67 in 5.0 mi ESE 21.9 mph 34.5 mph 0.03 in Rain Light Rain
10:50 AM 46.4 °F 41.1 °F 44.6 °F 93% 29.64 in 10.0 mi SE 11.5 mph 25.3 mph 0.00 in   Overcast
10:53 AM 46.9 °F - 45.0 °F 93% 29.65 in 10.0 mi SE 11.5 mph 19.6 mph 0.00 in   Overcast
11:30 AM 46.9 °F - 45.0 °F 93% 29.62 in 1.5 mi SE 19.6 mph 34.5 mph 0.06 in Rain Rain
11:53 AM 46.9 °F - 46.0 °F 97% 29.61 in 1.8 mi SE 18.4 mph 33.4 mph 0.13 in Rain Rain
12:53 PM 46.9 °F - 46.0 °F 97% 29.60 in 1.8 mi SE 12.7 mph 24.2 mph 0.16 in Rain Light Rain
1:12 PM 46.9 °F - 46.0 °F 97% 29.59 in 1.8 mi SE 8.1 mph - 0.01 in Rain , Thunderstorm Thunderstorms and Rain
1:16 PM 46.9 °F - 46.0 °F 97% 29.59 in 3.0 mi SE 10.4 mph - 0.01 in Rain , Thunderstorm Light Thunderstorms and Rain
1:32 PM 48.0 °F - 46.9 °F 96% 29.59 in 1.5 mi ESE 11.5 mph - 0.01 in Rain , Thunderstorm Light Thunderstorms and Rain
1:53 PM 48.2 °F - 46.4 °F 93% 29.59 in 1.2 mi SE 10.4 mph - N/A Rain Light Rain
2:14 PM 48.0 °F - 46.9 °F 96% 29.57 in 1.5 mi ESE 9.2 mph - 0.00 in Rain Light Rain
2:24 PM 48.0 °F - 46.9 °F 96% 29.57 in 2.0 mi ESE 10.4 mph - 0.00 in Rain Light Rain
2:53 PM 48.9 °F - 48.0 °F 97% 29.55 in 1.5 mi ESE 8.1 mph - 0.00 in   Overcast
3:10 PM 50.0 °F - 48.9 °F 96% 29.55 in 3.0 mi SSE 9.2 mph - N/A   Overcast
3:49 PM 50.0 °F - 48.2 °F 94% 29.54 in 3.0 mi ESE 6.9 mph - 0.00 in   Light Drizzle
3:53 PM 50.0 °F - 48.9 °F 96% 29.55 in 3.0 mi SE 5.8 mph - 0.00 in   Light Drizzle
4:53 PM 48.9 °F - 48.9 °F 100% 29.57 in 2.0 mi SSE 3.5 mph - 0.00 in   Light Drizzle
5:27 PM 50.0 °F - 48.9 °F 96% 29.58 in 2.0 mi SW 3.5 mph - 0.00 in   Light Drizzle
5:53 PM 50.0 °F - 48.9 °F 96% 29.59 in 1.2 mi SSW 4.6 mph - 0.00 in   Light Drizzle
6:12 PM 50.0 °F - 48.9 °F 96% 29.59 in 1.2 mi SW 3.5 mph - 0.00 in   Light Drizzle
6:22 PM 50.0 °F - 48.9 °F 96% 29.60 in 1.2 mi SSW 4.6 mph - 0.00 in   Overcast
6:26 PM 50.0 °F - 48.9 °F 96% 29.60 in 2.0 mi SSW 3.5 mph - 0.00 in   Overcast
6:53 PM 50.0 °F - 48.9 °F 96% 29.61 in 2.0 mi Calm Calm - 0.00 in   Overcast
7:26 PM 50.0 °F - 48.9 °F 96% 29.63 in 2.0 mi Calm Calm - N/A   Overcast
7:39 PM 50.0 °F - 48.9 °F 96% 29.63 in 3.0 mi Calm Calm - N/A   Overcast
7:53 PM 48.9 °F - 48.9 °F 100% 29.64 in 5.0 mi Calm Calm - N/A   Overcast
8:14 PM 48.9 °F - 48.0 °F 97% 29.65 in 8.0 mi NW 5.8 mph - N/A   Mostly Cloudy
8:50 PM 48.2 °F - 48.2 °F 100% 29.68 in 2.0 mi WNW 6.9 mph - N/A   Overcast
8:53 PM 48.9 °F - 48.0 °F 97% 29.68 in 2.0 mi WNW 6.9 mph - 0.01 in   Light Drizzle
9:12 PM 48.0 °F - 44.1 °F 86% 29.70 in 8.0 mi NW 11.5 mph - 0.00 in   Overcast
9:28 PM 46.4 °F 42.4 °F 42.8 °F 87% 29.71 in 10.0 mi NW 8.1 mph - N/A   Mostly Cloudy
9:53 PM 46.9 °F - 43.0 °F 86% 29.72 in 10.0 mi West 5.8 mph - 0.00 in   Mostly Cloudy
10:53 PM 45.0 °F 42.6 °F 43.0 °F 93% 29.72 in 10.0 mi WNW 4.6 mph - 0.00 in   Overcast
11:53 PM 45.0 °F 42.6 °F 43.0 °F 93% 29.73 in 10.0 mi WNW 4.6 mph - N/A   Mostly Cloudy